Dewpoint
74 72 70 70 72 72 71 69 59 61 60 54 55 45 50 50 48 49 50 53 49 51 53 53 53 54 56 57 59 60 60 60 60 52 56 65 68 70 70 71 72 72 72 72 73 73 74 74 74 74 74 74 74 74 75 76 77 77 77 77 75 75 76 76 76 76 76 76 77 77 77 76 76 76 76 76 76 75 75 75 75 75 75 75 75 75 75 75 75 75 75 74 74 74 75 75 75
69 69 68 69 72 70 66 68 60 57 60 52 51 52 51 49 48 50 51 51 49 50 52 52 54 55 55 59 60 60 60 62 63 63 65 67 68 70 70 71 71 70 70 71 73 73 74 74 75 75 75 75 75 75 75 76 77 77 77 76 75 75 75 75 76 76 76 76 76 76 76 76 76 76 76 76 76 76 76 75 75 75 75 75 75 75 75 74 75 75 75 75 75 75 74 75 75
68 67 68 70 72 70 68 67 57 53 51 50 49 51 49 49 49 49 49 49 49 51 55 54 54 55 55 59 58 59 59 64 64 65 66 68 68 69 71 70 70 70 70 71 71 72 74 74 75 75 75 75 75 75 75 76 77 77 77 75 75 75 75 76 76 76 76 76 76 76 76 76 76 76 76 76 76 76 76 75 75 75 75 75 75 74 74 74 74 75 75 74 75 75 75 75 75
68 69 68 70 66 70 64 63 57 53 53 51 52 48 48 46 47 48 48 49 51 54 54 54 54 55 56 58 58 59 60 62 64 65 65 69 68 70 70 71 71 69 70 70 69 71 73 75 75 75 75 76 75 76 76 75 76 76 76 76 75 75 75 76 75 76 76 76 76 76 76 76 76 76 76 75 75 75 75 75 76 75 75 75 75 74 74 74 74 74 74 75 75 76 75 75 75
65 65 65 66 66 62 61 57 56 58 47 55 55 48 47 46 47 47 48 52 51 52 53 55 55 57 57 58 59 58 59 62 63 65 66 68 69 69 69 71 70 69 69 69 69 71 73 76 76 75 76 76 76 75 75 75 76 76 76 75 75 75 76 76 76 76 76 76 75 75 75 75 75 75 75 75 75 75 75 76 76 75 75 75 75 75 75 74 74 74 74 75 75 76 76 75 76
64 61 62 63 62 64 60 56 51 38 47 53 54 56 45 45 45 48 48 49 50 52 51 54 56 57 57 58 59 61 62 61 65 65 66 69 69 69 70 70 69 69 69 69 70 72 73 76 76 76 76 75 76 76 75 75 76 76 75 75 75 75 75 76 75 75 75 75 75 75 75 75 75 75 75 75 75 75 75 76 75 75 75 75 75 75 75 75 75 74 75 75 75 75 75 75 75
61 62 65 65 63 63 56 52 51 32 50 48 49 47 45 45 47 47 47 47 50 51 50 54 55 54 54 59 61 62 63 62 62 67 67 69 69 69 70 70 70 69 69 70 71 72 74 76 76 76 76 76 76 77 76 76 76 75 75 76 75 76 76 76 75 76 76 75 75 75 75 75 75 75 75 75 75 75 75 75 75 75 75 75 75 75 75 75 75 75 75 75 75 75 75 75 75
65 62 63 60 58 58 57 56 36 34 38 49 46 45 46 46 46 45 44 43 47 47 50 53 55 56 57 60 59 62 63 64 65 68 67 68 68 69 68 68 68 68 69 70 72 73 77 76 76 76 76 76 76 77 76 76 75 75 76 76 76 76 76 75 75 75 75 75 75 75 75 75 75 75 75 75 75 75 75 75 76 76 75 75 75 76 76 76 76 76 76 75 75 75 74 74 74
67 66 62 58 55 53 47 40 31 33 38 42 43 46 51 46 45 46 45 46 46 49 51 53 55 56 57 60 61 63 63 65 67 69 67 67 68 68 68 68 68 69 69 70 73 75 75 76 76 76 76 76 76 77 76 76 76 76 76 76 76 76 75 75 75 75 75 75 75 74 75 75 75 75 75 75 75 75 75 76 76 75 74 75 75 76 76 76 76 75 75 75 75 75 74 74 74
64 64 58 56 54 52 52 29 30 35 36 36 39 42 45 45 46 46 42 45 46 51 52 54 57 58 58 59 61 65 63 65 66 66 66 67 67 68 68 68 69 69 69 71 73 74 75 77 76 76 77 77 77 76 76 76 76 76 76 77 76 76 76 76 75 75 75 75 75 74 75 75 75 75 75 75 75 75 75 76 75 74 75 75 76 76 76 76 75 75 75 74 74 75 74 74 74
63 62 61 55 52 47 47 22 28 33 35 39 41 42 44 46 46 46 45 45 48 50 53 55 55 57 58 60 60 62 65 65 64 65 66 66 67 67 67 69 69 69 70 71 72 73 75 75 78 77 77 77 77 76 76 76 76 76 76 77 76 76 76 76 76 75 75 75 75 75 75 75 75 75 75 75 75 75 76 75 75 75 76 76 76 75 76 75 75 75 74 74 74 74 74 74 74
58 56 55 51 50 47 28 24 23 30 36 37 37 42 44 46 46 45 44 45 46 50 52 53 55 59 59 58 60 62 63 64 64 65 65 66 66 67 67 67 68 69 69 70 72 73 74 75 75 77 77 77 77 77 76 76 76 77 77 77 77 76 76 76 75 75 75 75 75 75 75 75 76 76 75 75 75 75 75 75 76 76 76 75 76 75 76 75 75 75 74 74 74 74 74 74 75
59 53 52 49 47 46 27 27 28 31 32 37 39 39 44 45 45 45 45 43 46 50 52 54 55 56 57 58 60 62 62 63 64 64 65 65 66 68 67 69 68 67 67 71 71 72 74 74 74 75 75 77 77 77 77 77 76 77 77 76 76 76 76 76 75 75 76 75 75 75 75 76 76 76 76 75 75 75 75 75 76 76 75 75 76 76 76 75 75 74 74 75 75 74 75 74 74
55 54 50 49 48 46 29 25 29 29 28 29 34 39 42 44 45 46 45 43 46 50 53 54 55 57 58 59 60 62 62 63 64 64 64 65 65 65 68 67 67 68 69 69 70 72 73 73 73 74 75 76 76 76 77 77 77 76 76 76 76 76 76 76 76 76 76 76 76 76 76 75 75 76 76 75 75 74 75 76 76 75 75 76 76 76 76 75 74 74 74 74 74 74 74 74 74
53 55 52 50 48 47 32 33 31 27 29 31 35 39 42 44 46 45 44 44 49 51 52 56 58 57 56 57 58 61 62 63 63 64 64 65 65 66 67 67 69 69 68 69 71 71 71 72 72 75 76 75 76 76 76 76 77 76 76 77 76 76 76 76 76 76 76 76 76 76 76 75 76 76 76 75 75 75 76 76 75 75 75 75 75 75 76 75 74 74 74 74 74 74 74 74 74
51 53 52 48 40 41 31 30 31 28 29 31 34 35 35 40 43 44 44 47 48 50 51 52 54 55 57 57 60 61 62 63 64 64 64 64 66 67 68 68 68 69 70 70 70 70 71 72 74 75 75 75 75 74 75 76 77 77 76 77 76 76 76 76 76 76 76 76 76 76 75 76 76 76 76 75 75 76 76 75 75 74 75 75 75 75 75 76 75 75 75 74 75 75 75 74 75
51 53 50 45 40 43 31 35 32 30 32 31 33 34 34 38 43 45 47 46 44 45 49 50 51 53 55 57 61 62 62 64 65 64 65 66 66 66 67 68 69 70 70 70 71 71 71 72 74 74 75 75 74 74 75 76 77 77 76 77 76 76 76 76 76 76 76 76 76 76 76 75 77 76 75 74 75 75 75 75 75 74 74 76 75 75 76 76 75 74 74 75 74 74 74 74 74
50 50 46 44 38 51 44 36 35 33 32 31 33 34 37 39 42 42 44 42 42 46 47 49 50 53 57 58 60 61 62 63 64 64 65 66 67 65 66 68 68 68 69 70 71 71 72 73 73 74 74 75 74 74 74 75 77 76 76 76 76 76 76 76 76 76 76 76 76 76 77 76 77 77 76 75 74 77 76 76 75 75 75 76 76 75 76 76 76 74 74 74 74 75 75 75 77
41 47 45 40 37 41 39 36 34 34 34 35 34 34 34 37 33 38 41 41 41 45 46 46 50 54 58 59 60 61 62 63 63 65 65 65 66 66 66 67 68 69 69 70 71 71 73 73 74 74 74 75 74 74 74 75 76 76 76 76 76 76 76 76 76 76 76 76 76 75 77 76 75 77 78 76 74 76 76 76 76 75 75 77 76 77 77 77 76 75 73 73 74 75 77 78 78
39 48 48 43 43 37 38 39 39 40 38 36 34 33 34 34 32 40 40 39 39 44 44 44 53 56 58 59 60 61 62 62 64 64 64 65 65 65 66 66 68 69 69 70 71 71 72 72 73 74 75 75 74 74 74 75 75 76 75 75 75 76 76 76 76 76 76 76 75 76 75 77 75 78 75 73 73 75 77 77 76 76 76 76 77 76 76 77 77 76 75 74 74 75 77 75 74
39 38 41 44 39 39 46 37 37 39 40 39 38 38 33 33 33 35 39 37 38 44 43 47 53 57 57 58 60 61 60 62 64 64 64 65 65 65 65 67 67 68 69 70 71 72 72 71 73 75 75 75 74 74 74 74 74 75 74 74 74 74 75 75 75 75 75 76 76 75 74 74 73 74 76 76 72 72 76 76 76 75 76 77 78 77 77 76 77 76 75 76 75 76 75 75 74
39 37 39 40 39 38 42 39 37 37 41 41 40 39 35 35 31 36 36 38 35 42 43 49 54 56 57 57 60 60 61 61 63 63 62 62 63 65 65 66 67 67 68 69 70 71 71 71 72 74 75 75 75 74 74 74 74 74 74 74 74 74 74 74 75 74 74 76 76 74 73 75 74 74 76 76 75 77 75 75 76 78 77 76 77 78 75 77 76 75 74 75 74 74 73 74 74
32 37 39 38 40 40 38 39 37 36 38 41 40 41 37 36 32 37 35 36 35 43 44 51 53 58 60 60 59 60 60 60 60 60 61 61 62 63 64 65 65 66 67 68 70 70 71 70 72 73 72 75 75 75 74 74 73 74 75 73 74 73 74 73 73 73 75 77 75 75 71 74 71 71 73 74 75 75 75 76 76 76 77 75 75 74 74 76 75 76 74 73 73 70 70 76 76
32 31 38 38 38 39 42 33 36 33 38 40 40 43 40 38 33 36 36 38 36 42 46 50 54 56 57 58 59 58 59 59 59 59 59 61 61 62 63 63 65 65 66 67 68 69 70 69 72 72 73 73 74 73 73 72 73 72 72 74 74 74 74 73 72 74 76 75 76 74 74 73 75 73 74 76 76 76 74 75 76 75 74 76 76 75 73 75 74 75 75 75 74 73 68 73 72
29 27 34 36 38 41 38 34 35 34 33 39 41 40 41 39 36 36 36 35 37 41 48 51 53 54 56 57 58 58 60 58 58 59 59 61 62 62 62 64 64 65 65 67 68 68 69 70 71 71 72 74 72 71 71 71 71 71 72 71 73 74 73 73 72 74 74 75 75 77 77 72 71 71 73 75 75 77 74 74 74 75 75 75 75 74 75 77 75 75 76 76 76 75 73 73 73
23 23 27 31 35 37 36 35 34 34 33 39 39 36 40 38 39 35 35 32 37 41 49 51 52 53 55 56 56 58 59 58 57 58 59 61 60 61 62 63 64 65 64 66 67 68 69 69 70 70 72 73 73 70 71 71 72 71 72 73 73 74 73 74 75 73 74 74 75 76 75 75 74 72 74 76 74 75 76 73 76 75 76 76 75 75 78 76 75 75 76 76 74 74 72 73 74
23 22 25 29 32 34 35 34 33 34 32 37 37 36 39 40 40 34 37 33 38 41 47 50 51 52 54 55 55 57 57 57 57 58 58 60 61 61 61 62 63 64 66 66 66 67 69 68 69 71 71 74 73 70 72 72 72 72 73 72 73 73 73 74 75 73 73 72 73 77 78 77 76 74 74 76 78 76 76 77 75 77 75 73 77 76 77 75 76 75 76 76 74 74 73 73 73
22 22 23 28 29 31 31 32 32 32 32 35 35 36 38 40 37 37 37 34 36 41 46 49 51 52 53 53 54 60 58 57 58 57 56 58 59 60 60 63 63 64 65 66 67 69 67 67 68 69 70 73 74 70 73 72 73 72 74 73 72 73 76 72 72 71 72 75 78 78 79 78 77 78 78 76 75 77 76 76 77 76 75 77 77 75 75 76 76 75 75 75 74 75 74 72 71
21 20 15 19 24 28 30 29 30 28 29 33 35 36 37 39 34 41 39 37 36 41 44 45 49 50 54 53 53 59 57 57 56 57 56 59 60 60 60 61 62 64 65 66 67 67 66 67 68 69 70 74 74 70 70 71 72 71 72 73 73 74 74 74 72 72 75 74 78 79 79 78 79 78 79 77 75 75 75 76 75 76 77 76 76 74 73 76 77 75 74 74 74 74 73 71 70
20 20 20 19 22 22 24 26 23 26 26 32 34 32 36 37 36 42 41 38 36 40 43 44 46 49 52 52 53 56 56 57 56 57 58 59 60 59 60 60 62 64 65 66 66 66 65 65 66 68 70 71 74 70 72 71 72 72 73 72 75 74 73 73 73 75 76 76 76 78 78 79 78 78 79 77 77 77 75 76 76 76 77 76 76 78 75 76 76 75 74 74 73 73 69 71 72
18 19 20 21 19 20 24 24 26 25 28 32 34 32 36 37 37 40 42 40 36 38 41 41 44 48 48 50 52 56 56 58 56 57 56 57 59 59 60 60 62 63 64 65 66 68 69 67 66 66 70 71 72 72 72 73 73 71 72 73 73 75 74 73 70 72 74 74 75 76 77 78 78 78 78 79 76 76 74 74 76 76 76 76 76 76 76 75 75 74 75 73 73 71 72 70 71
20 18 18 19 20 22 22 25 26 24 30 32 33 32 42 37 37 37 43 43 38 39 40 41 43 46 48 49 51 54 56 56 56 56 56 57 59 59 60 60 61 62 65 67 67 68 68 68 70 67 69 72 72 73 73 73 73 75 73 72 74 75 72 72 71 70 70 72 73 75 77 77 78 78 79 79 78 76 75 75 76 77 77 77 76 76 76 75 75 73 74 72 73 70 70 70 70
17 19 18 18 20 20 21 25 27 24 30 32 32 31 36 37 38 38 43 44 41 40 41 40 43 44 47 48 50 54 55 56 57 57 57 58 59 60 60 61 62 63 64 68 68 69 69 68 70 66 67 70 73 72 74 75 76 75 75 72 71 74 71 71 73 72 72 71 72 72 76 77 78 78 78 78 79 77 76 75 75 75 77 76 76 76 75 75 73 71 74 74 72 76 71 67 68
16 17 19 19 19 19 21 26 27 24 31 31 32 31 37 37 38 38 41 43 43 42 41 40 42 44 47 48 50 54 56 56 57 58 57 59 60 61 59 65 62 64 65 65 68 69 68 69 68 68 69 67 73 74 74 74 75 76 74 73 74 72 70 69 70 72 72 70 72 75 78 79 79 78 79 79 79 77 76 76 74 77 76 76 76 74 75 73 73 73 73 74 73 72 71 68 67
16 18 19 18 20 21 20 25 27 26 29 32 32 31 35 38 37 38 40 40 41 44 44 42 42 43 46 47 49 53 55 56 57 59 58 60 59 60 61 62 62 63 63 66 68 71 71 70 70 71 72 70 72 74 75 75 75 76 74 74 73 74 75 72 72 72 71 72 69 76 79 79 78 79 78 78 78 77 76 77 76 76 76 77 76 74 74 73 72 72 72 75 73 72 72 69 69
16 18 18 18 19 19 20 24 29 28 28 30 33 32 33 36 37 37 39 39 41 43 45 45 44 42 46 47 48 51 55 55 58 59 59 58 59 60 61 62 63 63 65 68 71 71 72 72 72 72 74 71 73 74 74 73 73 73 72 72 72 73 73 73 73 71 71 72 73 78 79 79 78 77 77 77 77 77 77 77 75 75 75 75 75 73 73 73 73 70 71 68 70 71 71 70 70
18 17 20 20 20 20 21 24 27 28 28 31 33 34 33 37 40 37 38 39 40 40 43 44 45 45 44 46 47 48 54 53 57 58 59 59 59 62 63 63 64 65 68 69 71 71 72 71 72 72 73 73 73 73 73 72 72 72 72 70 70 71 73 73 72 72 70 70 76 79 78 78 77 77 77 77 77 77 77 76 77 76 75 75 74 73 73 71 73 74 76 74 70 71 68 74 70
16 17 18 18 20 19 21 24 26 27 27 31 34 34 35 39 41 37 39 38 37 37 41 43 45 46 46 49 49 49 51 53 57 58 58 58 59 60 61 63 64 64 67 68 69 70 72 71 72 73 72 74 73 73 73 73 73 71 71 70 69 69 72 72 72 73 72 72 77 78 78 78 77 77 78 78 78 77 76 76 76 75 75 74 74 73 70 69 70 68 73 75 71 69 71 66 67
16 18 19 18 20 21 21 23 26 28 28 29 32 33 34 35 38 40 39 38 40 39 41 42 45 46 49 48 49 51 50 53 52 55 57 56 58 59 61 63 63 63 64 65 69 71 73 72 73 74 73 73 73 73 74 74 73 73 71 71 70 69 71 72 71 71 73 71 73 78 78 77 78 78 77 77 76 76 75 75 75 75 74 73 74 72 73 72 74 71 71 70 70 71 67 71 70
18 18 18 18 19 20 20 21 23 28 29 27 32 31 33 36 37 39 41 40 41 42 41 41 42 46 48 47 49 51 51 54 52 53 55 55 57 59 61 63 64 63 66 65 67 70 72 73 74 74 74 73 73 74 74 74 74 74 74 74 72 71 71 72 74 74 73 72 71 76 77 78 77 76 75 75 75 75 75 75 74 74 75 72 76 74 72 74 73 72 71 70 73 66 63 69 69
17 16 16 17 17 20 22 21 21 27 29 29 29 33 34 35 34 35 43 42 42 42 42 44 45 44 46 46 47 50 50 54 54 52 56 56 58 58 62 64 62 63 64 65 67 68 70 72 74 74 75 74 74 74 74 75 75 75 75 75 75 74 74 73 72 71 72 73 71 76 77 76 75 75 75 75 75 75 74 75 74 73 74 73 72 73 73 69 70 69 70 73 69 67 65 67 68
14 16 16 16 17 20 21 21 20 25 28 29 28 35 34 37 36 35 37 41 43 44 45 44 49 47 48 46 48 50 51 53 57 55 55 55 57 60 64 64 63 63 65 66 66 68 71 73 74 74 74 75 74 74 75 75 75 74 74 74 73 74 73 73 72 72 70 71 69 71 76 75 74 74 75 75 74 74 74 74 74 72 73 73 74 72 73 75 70 69 68 68 69 72 70 66 67
13 16 18 17 17 18 20 21 21 23 27 30 30 30 32 36 36 37 39 39 42 45 46 44 48 51 47 48 48 47 48 50 55 54 54 54 58 58 62 65 64 63 64 66 67 69 72 74 74 74 74 75 75 75 75 75 75 75 75 73 73 73 73 73 75 73 74 74 73 73 73 73 74 73 72 74 73 74 74 74 74 73 72 73 73 72 71 68 65 69 68 70 71 70 71 68 66
11 15 17 17 16 16 18 21 21 22 24 28 30 31 33 33 35 38 39 40 40 44 46 47 45 49 45 46 45 51 49 50 52 56 57 57 59 59 60 64 64 62 64 65 66 69 72 74 74 74 74 75 75 76 75 75 75 75 75 74 74 74 72 74 75 75 75 75 73 72 72 73 74 74 73 74 74 74 74 74 74 73 72 70 71 71 71 69 72 70 70 70 72 72 73 71 68
8 12 14 15 15 16 17 19 20 21 26 29 29 31 34 34 37 40 39 39 41 44 44 47 48 48 48 48 45 49 49 51 51 54 55 56 59 59 60 63 64 64 64 66 68 69 72 74 75 75 75 75 76 76 76 76 76 76 75 75 75 75 74 74 74 74 75 74 74 75 74 73 75 75 74 73 74 73 74 74 74 74 72 73 71 69 67 65 69 70 71 71 71 71 74 73 72
7 10 13 14 15 16 17 18 18 23 25 27 29 29 32 33 36 35 38 38 39 40 43 43 46 48 49 47 48 48 50 55 51 52 56 56 58 59 60 61 64 65 66 68 68 69 72 74 75 75 75 76 76 77 77 77 77 76 76 76 75 75 74 74 73 74 75 75 74 75 75 75 74 74 74 74 74 73 73 73 73 71 71 68 67 68 67 70 69 70 70 69 70 71 74 72 70
5 9 10 12 13 16 20 19 24 25 24 28 22 25 29 31 35 37 38 38 39 39 42 43 47 47 48 49 48 47 49 51 52 53 55 58 58 60 61 61 64 66 67 68 68 69 71 73 75 75 76 76 76 76 77 77 77 77 76 76 75 74 75 75 74 74 74 75 74 74 75 75 74 73 72 74 73 73 73 73 71 70 70 71 69 71 68 68 66 69 67 70 70 70 69 71 68
2 6 9 12 17 17 23 23 27 23 20 26 22 22 26 29 33 36 39 40 38 38 39 41 41 46 48 49 46 45 47 51 50 52 53 58 61 61 62 63 64 67 67 68 67 70 71 73 74 75 76 76 76 76 76 76 76 76 76 76 75 75 75 74 74 73 73 74 73 74 75 75 75 74 74 73 72 69 73 73 72 71 72 71 70 71 73 69 66 66 71 71 70 70 70 72 70
-1 3 11 11 14 17 17 20 19 20 17 20 19 22 23 28 33 34 35 36 38 39 37 37 38 41 46 44 45 48 48 48 52 57 58 59 60 61 62 65 66 68 68 69 68 67 70 73 74 75 76 76 76 76 76 76 76 76 76 75 75 76 76 75 75 74 74 74 74 75 75 74 74 74 74 72 71 71 73 73 73 74 72 71 70 71 71 71 71 71 70 68 70 69 70 69 70
-6 2 10 13 14 16 18 17 21 21 18 17 19 21 22 27 30 33 32 35 37 37 38 37 38 41 46 47 50 47 50 51 51 54 55 57 62 61 64 65 67 67 68 68 69 69 71 72 74 74 76 76 76 76 76 76 77 77 76 76 76 76 76 76 75 73 74 75 75 74 73 73 74 73 72 73 70 70 72 72 73 72 72 72 72 71 70 72 71 76 69 69 67 70 70 69 69
3 5 5 14 19 14 18 17 16 18 20 19 17 17 26 23 29 29 32 34 36 35 35 40 42 42 50 48 50 49 50 52 54 55 54 56 62 61 61 64 66 67 67 66 68 70 72 72 74 75 76 76 76 76 76 76 76 77 76 76 76 76 76 76 76 74 75 75 74 74 74 73 73 73 73 73 73 73 72 71 71 71 72 71 71 70 70 71 72 73 76 68 70 68 69 70 68
5 5 6 9 14 17 14 17 16 16 17 16 23 22 25 24 38 32 33 31 34 34 35 37 42 41 42 42 42 45 47 47 48 51 54 57 61 64 63 64 67 67 68 66 68 70 71 72 74 75 75 76 76 76 76 76 76 76 77 76 76 76 76 76 76 75 76 75 75 74 75 75 74 74 74 73 73 73 72 71 71 70 71 70 70 71 70 69 70 69 71 70 69 67 68 68 70
0 -1 1 3 7 8 17 21 15 18 20 22 25 23 24 25 25 26 31 31 33 35 33 32 38 39 45 43 42 45 44 46 48 50 54 59 59 62 62 63 63 65 66 66 69 70 72 72 74 75 76 76 76 76 76 76 77 76 76 76 76 76 76 75 75 75 72 74 75 75 74 74 74 74 73 72 71 73 72 71 70 68 71 70 70 70 69 70 69 68 68 70 69 66 69 68 69
-1 -4 -4 0 3 5 17 15 21 15 16 21 18 20 21 23 25 29 30 31 31 34 34 32 37 38 39 37 45 46 44 49 52 56 60 60 59 61 61 61 61 63 64 67 70 70 72 72 73 74 75 76 76 75 75 76 77 76 76 76 76 76 75 74 74 74 74 74 75 75 74 73 73 72 71 70 71 70 72 71 71 70 69 69 69 68 69 69 68 68 68 69 68 69 72 69 67
1 -5 -5 -3 5 9 18 21 14 12 14 21 21 18 21 24 28 26 28 29 30 34 37 34 33 36 38 36 45 48 50 49 51 50 58 60 59 59 62 61 61 63 67 68 69 69 70 72 72 72 74 74 75 73 74 75 76 76 75 75 76 76 75 74 74 75 75 74 72 74 72 73 72 73 73 73 72 70 71 70 71 70 70 69 69 68 69 68 69 68 68 68 68 69 69 70 69
4 1 -4 -1 4 10 13 16 18 22 19 21 18 19 22 27 24 24 25 30 34 30 34 32 32 33 35 36 40 51 49 49 48 47 50 57 57 55 56 60 61 62 66 66 66 66 66 68 71 72 73 75 75 75 75 76 76 75 75 76 76 76 76 75 75 75 74 73 73 72 72 71 72 72 72 73 71 70 70 69 69 67 67 67 68 67 68 68 69 69 67 66 66 68 68 67 68
4 1 -1 -2 -2 2 7 8 11 17 23 21 19 16 22 27 23 22 28 35 35 33 36 39 35 33 30 32 35 48 48 48 47 47 48 50 53 53 55 59 61 62 64 65 65 65 64 66 68 70 73 73 74 74 74 75 75 75 76 76 76 76 76 75 74 75 75 74 74 73 72 71 73 72 72 72 71 70 70 69 68 68 66 67 68 68 68 68 68 68 69 68 67 67 66 67 67
4 1 -1 -4 -3 10 11 12 9 13 18 23 19 17 27 20 18 30 31 34 26 29 35 38 35 30 37 37 36 43 44 49 48 45 45 47 52 54 56 59 62 62 62 64 65 64 64 64 67 70 71 73 73 74 74 75 75 75 75 75 75 75 75 75 74 74 74 74 74 73 73 73 72 72 72 71 71 70 70 70 68 68 68 68 68 69 67 68 68 68 68 67 67 68 67 66 65